QPF
0.00 0.00 0.00 0.00 0.00 0.00 0.00 0.01 0.01 0.01 0.01 0.01 0.02 0.02 0.03 0.03 0.03 0.02 0.02 0.03 0.04 0.06 0.06 0.08 0.10 0.09 0.07 0.06 0.05 0.04 0.03 0.03 0.03 0.04 0.04 0.04 0.05 0.06 0.05 0.05 0.05 0.05 0.06
0.00 0.00 0.00 0.00 0.00 0.00 0.00 0.00 0.00 0.01 0.01 0.01 0.02 0.02 0.02 0.02 0.02 0.03 0.01 0.01 0.02 0.05 0.07 0.07 0.08 0.08 0.08 0.06 0.05 0.05 0.05 0.05 0.04 0.03 0.05 0.06 0.08 0.07 0.06 0.05 0.05 0.06 0.05
0.00 0.00 0.00 0.01 0.01 0.01 0.01 0.00 0.01 0.01 0.01 0.01 0.01 0.01 0.01 0.01 0.01 0.02 0.01 0.01 0.01 0.02 0.05 0.06 0.07 0.08 0.09 0.08 0.07 0.07 0.09 0.09 0.07 0.06 0.07 0.08 0.08 0.07 0.06 0.05 0.05 0.05 0.05
0.01 0.01 0.01 0.01 0.01 0.02 0.02 0.01 0.01 0.01 0.01 0.01 0.01 0.01 0.01 0.01 0.02 0.02 0.02 0.02 0.03 0.03 0.03 0.04 0.04 0.06 0.08 0.08 0.08 0.07 0.07 0.07 0.07 0.08 0.09 0.08 0.07 0.07 0.05 0.04 0.04 0.04 0.04
0.03 0.03 0.02 0.02 0.02 0.02 0.02 0.02 0.01 0.02 0.02 0.01 0.01 0.00 0.01 0.01 0.03 0.04 0.05 0.04 0.04 0.03 0.03 0.03 0.04 0.04 0.04 0.05 0.06 0.06 0.06 0.06 0.05 0.06 0.09 0.11 0.09 0.06 0.04 0.03 0.03 0.03 0.03
0.03 0.02 0.02 0.01 0.01 0.01 0.01 0.02 0.02 0.02 0.02 0.02 0.01 0.02 0.02 0.02 0.04 0.06 0.05 0.05 0.04 0.05 0.07 0.07 0.08 0.07 0.06 0.03 0.03 0.04 0.05 0.05 0.05 0.05 0.07 0.08 0.08 0.06 0.04 0.02 0.01 0.02 0.02
0.01 0.01 0.01 0.01 0.01 0.00 0.01 0.02 0.02 0.02 0.02 0.02 0.02 0.02 0.03 0.03 0.04 0.06 0.07 0.06 0.06 0.07 0.09 0.09 0.08 0.07 0.07 0.05 0.04 0.03 0.03 0.03 0.04 0.04 0.06 0.06 0.04 0.04 0.03 0.02 0.03 0.03 0.02
0.01 0.01 0.01 0.01 0.01 0.01 0.01 0.02 0.02 0.02 0.01 0.01 0.02 0.01 0.01 0.01 0.02 0.04 0.07 0.08 0.07 0.07 0.08 0.08 0.06 0.06 0.07 0.06 0.05 0.04 0.03 0.03 0.04 0.04 0.08 0.09 0.06 0.05 0.04 0.04 0.05 0.03 0.02
0.00 0.00 0.01 0.01 0.01 0.01 0.01 0.01 0.01 0.01 0.01 0.01 0.01 0.01 0.01 0.02 0.02 0.03 0.03 0.04 0.04 0.06 0.08 0.07 0.06 0.06 0.05 0.05 0.03 0.02 0.03 0.03 0.03 0.04 0.07 0.06 0.06 0.04 0.04 0.05 0.05 0.05 0.03
0.00 0.00 0.00 0.01 0.01 0.01 0.01 0.01 0.01 0.01 0.01 0.01 0.01 0.02 0.02 0.03 0.04 0.02 0.02 0.02 0.02 0.03 0.05 0.06 0.06 0.05 0.05 0.05 0.04 0.02 0.02 0.03 0.03 0.04 0.03 0.03 0.03 0.03 0.03 0.03 0.03 0.03 0.03
0.00 0.00 0.00 0.01 0.01 0.01 0.01 0.01 0.01 0.02 0.02 0.02 0.02 0.03 0.03 0.04 0.05 0.02 0.02 0.03 0.04 0.04 0.05 0.06 0.06 0.05 0.05 0.04 0.04 0.03 0.03 0.03 0.03 0.02 0.01 0.01 0.01 0.01 0.01 0.02 0.02 0.02 0.03
0.01 0.01 0.01 0.01 0.01 0.01 0.01 0.01 0.02 0.03 0.03 0.03 0.02 0.03 0.07 0.09 0.07 0.04 0.03 0.04 0.05 0.05 0.05 0.06 0.05 0.05 0.04 0.04 0.03 0.03 0.03 0.02 0.01 0.01 0.01 0.01 0.00 0.01 0.01 0.01 0.02 0.01 0.02
0.01 0.01 0.01 0.02 0.02 0.02 0.02 0.02 0.03 0.04 0.04 0.06 0.08 0.11 0.11 0.09 0.07 0.05 0.05 0.06 0.06 0.06 0.06 0.06 0.05 0.05 0.05 0.05 0.03 0.03 0.03 0.01 0.01 0.01 0.01 0.01 0.01 0.01 0.01 0.01 0.02 0.02 0.03
0.01 0.01 0.02 0.03 0.03 0.03 0.02 0.03 0.04 0.07 0.08 0.12 0.14 0.11 0.07 0.05 0.05 0.04 0.04 0.05 0.06 0.06 0.05 0.05 0.04 0.03 0.04 0.04 0.04 0.03 0.03 0.02 0.01 0.01 0.02 0.02 0.02 0.02 0.03 0.05 0.06 0.06 0.06
0.02 0.02 0.03 0.03 0.03 0.02 0.02 0.03 0.07 0.13 0.13 0.11 0.09 0.07 0.06 0.05 0.05 0.04 0.04 0.04 0.03 0.03 0.03 0.02 0.02 0.03 0.03 0.03 0.04 0.04 0.04 0.03 0.03 0.03 0.04 0.04 0.05 0.05 0.07 0.07 0.06 0.06 0.05
0.04 0.03 0.03 0.03 0.02 0.02 0.02 0.04 0.07 0.13 0.12 0.08 0.07 0.07 0.07 0.08 0.08 0.07 0.06 0.05 0.04 0.03 0.02 0.02 0.03 0.03 0.04 0.04 0.05 0.04 0.03 0.03 0.04 0.05 0.05 0.07 0.09 0.07 0.06 0.05 0.04 0.04 0.05
0.02 0.02 0.02 0.02 0.03 0.02 0.03 0.04 0.06 0.08 0.08 0.06 0.05 0.07 0.10 0.11 0.09 0.08 0.06 0.04 0.03 0.03 0.02 0.02 0.02 0.02 0.04 0.05 0.05 0.04 0.03 0.03 0.03 0.03 0.04 0.05 0.05 0.04 0.03 0.03 0.03 0.03 0.04
0.02 0.02 0.02 0.03 0.04 0.03 0.03 0.04 0.05 0.05 0.04 0.04 0.04 0.06 0.09 0.08 0.08 0.07 0.05 0.03 0.03 0.02 0.02 0.01 0.01 0.02 0.03 0.06 0.05 0.05 0.04 0.03 0.03 0.03 0.03 0.03 0.02 0.02 0.03 0.03 0.03 0.03 0.03
0.02 0.02 0.03 0.04 0.04 0.03 0.03 0.03 0.03 0.03 0.03 0.03 0.03 0.03 0.05 0.05 0.05 0.04 0.03 0.03 0.03 0.03 0.02 0.03 0.03 0.03 0.04 0.05 0.06 0.05 0.04 0.02 0.02 0.02 0.02 0.02 0.02 0.03 0.03 0.03 0.03 0.02 0.02
0.02 0.03 0.06 0.07 0.05 0.02 0.02 0.03 0.03 0.03 0.02 0.03 0.03 0.02 0.02 0.02 0.02 0.02 0.03 0.03 0.03 0.04 0.04 0.04 0.04 0.04 0.04 0.04 0.04 0.05 0.05 0.03 0.03 0.03 0.02 0.02 0.02 0.02 0.03 0.02 0.02 0.02 0.01
0.03 0.04 0.04 0.04 0.03 0.02 0.02 0.03 0.02 0.02 0.02 0.03 0.03 0.03 0.03 0.02 0.02 0.03 0.04 0.05 0.04 0.06 0.08 0.08 0.06 0.06 0.06 0.05 0.04 0.04 0.04 0.03 0.04 0.03 0.03 0.02 0.02 0.02 0.02 0.02 0.01 0.01 0.01
0.02 0.03 0.04 0.03 0.03 0.02 0.03 0.03 0.03 0.03 0.03 0.04 0.04 0.05 0.06 0.06 0.05 0.05 0.05 0.06 0.06 0.06 0.07 0.08 0.07 0.06 0.06 0.05 0.05 0.04 0.04 0.04 0.04 0.04 0.03 0.03 0.04 0.04 0.03 0.03 0.03 0.03 0.03
0.02 0.03 0.04 0.04 0.05 0.05 0.04 0.04 0.04 0.05 0.05 0.06 0.06 0.08 0.10 0.09 0.09 0.07 0.07 0.07 0.06 0.06 0.05 0.06 0.06 0.06 0.05 0.06 0.04 0.03 0.03 0.03 0.03 0.03 0.03 0.03 0.03 0.03 0.02 0.03 0.03 0.03 0.03
0.03 0.03 0.04 0.05 0.06 0.08 0.08 0.08 0.08 0.07 0.06 0.06 0.06 0.07 0.09 0.10 0.10 0.09 0.08 0.07 0.06 0.05 0.04 0.04 0.04 0.03 0.03 0.02 0.01 0.01 0.01 0.01 0.01 0.02 0.02 0.03 0.03 0.03 0.03 0.03 0.04 0.04 0.04
0.08 0.07 0.05 0.05 0.07 0.08 0.10 0.11 0.11 0.10 0.08 0.07 0.07 0.07 0.07 0.08 0.10 0.10 0.08 0.07 0.06 0.05 0.04 0.03 0.03 0.03 0.02 0.01 0.01 0.01 0.01 0.01 0.01 0.01 0.02 0.02 0.02 0.02 0.03 0.03 0.02 0.02 0.03
0.05 0.07 0.08 0.09 0.09 0.09 0.10 0.11 0.10 0.08 0.08 0.08 0.07 0.07 0.07 0.08 0.10 0.12 0.12 0.11 0.10 0.08 0.06 0.05 0.05 0.03 0.02 0.02 0.03 0.03 0.02 0.02 0.02 0.01 0.01 0.01 0.01 0.01 0.02 0.02 0.02 0.02 0.01
MSLP
1008.89 1009.20 1009.47 1009.68 1009.83 1009.96 1010.11 1010.33 1010.64 1011.05 1011.52 1012.02 1012.48 1012.85 1013.11 1013.24 1013.26 1013.22 1013.18 1013.18 1013.26 1013.45 1013.73 1014.08 1014.45 1014.81 1015.13 1015.39 1015.59 1015.75 1015.87 1015.97 1016.06 1016.13 1016.16 1016.14 1016.04 1015.87 1015.62 1015.32 1015.02 1014.75 1014.55
1008.08 1008.41 1008.70 1008.92 1009.07 1009.19 1009.33 1009.53 1009.85 1010.28 1010.79 1011.35 1011.87 1012.30 1012.60 1012.75 1012.76 1012.70 1012.62 1012.57 1012.62 1012.78 1013.05 1013.40 1013.79 1014.17 1014.51 1014.79 1015.02 1015.20 1015.36 1015.51 1015.67 1015.82 1015.95 1016.03 1016.03 1015.94 1015.75 1015.49 1015.19 1014.89 1014.65
1007.13 1007.48 1007.81 1008.06 1008.23 1008.35 1008.48 1008.68 1009.00 1009.44 1009.99 1010.59 1011.16 1011.65 1011.99 1012.17 1012.19 1012.12 1012.01 1011.93 1011.94 1012.07 1012.31 1012.64 1013.02 1013.41 1013.76 1014.05 1014.30 1014.52 1014.73 1014.95 1015.19 1015.45 1015.69 1015.89 1016.01 1016.02 1015.90 1015.69 1015.40 1015.08 1014.79
1006.15 1006.53 1006.90 1007.19 1007.39 1007.53 1007.65 1007.84 1008.15 1008.58 1009.14 1009.76 1010.37 1010.89 1011.27 1011.48 1011.53 1011.46 1011.35 1011.25 1011.22 1011.31 1011.52 1011.82 1012.18 1012.55 1012.90 1013.21 1013.48 1013.74 1014.00 1014.29 1014.63 1014.99 1015.35 1015.67 1015.90 1016.02 1015.99 1015.82 1015.55 1015.22 1014.89
1005.26 1005.68 1006.09 1006.43 1006.67 1006.82 1006.94 1007.11 1007.38 1007.78 1008.30 1008.90 1009.51 1010.04 1010.45 1010.69 1010.77 1010.72 1010.61 1010.51 1010.47 1010.53 1010.70 1010.97 1011.30 1011.65 1011.99 1012.31 1012.60 1012.88 1013.20 1013.55 1013.96 1014.41 1014.87 1015.29 1015.63 1015.84 1015.89 1015.78 1015.55 1015.23 1014.88
1004.57 1005.03 1005.50 1005.89 1006.16 1006.32 1006.43 1006.54 1006.75 1007.07 1007.52 1008.06 1008.62 1009.14 1009.56 1009.82 1009.92 1009.90 1009.82 1009.72 1009.68 1009.72 1009.87 1010.11 1010.41 1010.74 1011.06 1011.37 1011.68 1011.98 1012.33 1012.72 1013.18 1013.69 1014.21 1014.71 1015.12 1015.41 1015.53 1015.49 1015.31 1015.03 1014.71
1004.15 1004.65 1005.18 1005.62 1005.92 1006.08 1006.15 1006.20 1006.31 1006.52 1006.86 1007.29 1007.78 1008.24 1008.63 1008.89 1009.02 1009.03 1008.97 1008.90 1008.87 1008.91 1009.03 1009.25 1009.52 1009.83 1010.14 1010.44 1010.74 1011.05 1011.40 1011.81 1012.29 1012.81 1013.36 1013.90 1014.36 1014.70 1014.90 1014.93 1014.83 1014.62 1014.36
1004.03 1004.58 1005.16 1005.64 1005.95 1006.10 1006.12 1006.08 1006.07 1006.15 1006.35 1006.65 1007.02 1007.40 1007.73 1007.98 1008.11 1008.14 1008.11 1008.06 1008.04 1008.08 1008.20 1008.40 1008.64 1008.92 1009.21 1009.50 1009.79 1010.09 1010.43 1010.82 1011.28 1011.79 1012.34 1012.87 1013.35 1013.74 1014.01 1014.13 1014.13 1014.04 1013.88
1004.18 1004.78 1005.40 1005.90 1006.22 1006.34 1006.30 1006.17 1006.04 1005.98 1006.02 1006.17 1006.41 1006.68 1006.94 1007.14 1007.25 1007.29 1007.27 1007.23 1007.22 1007.26 1007.36 1007.53 1007.76 1008.02 1008.28 1008.55 1008.82 1009.10 1009.41 1009.77 1010.19 1010.66 1011.18 1011.70 1012.19 1012.61 1012.94 1013.17 1013.30 1013.34 1013.33
1004.55 1005.19 1005.83 1006.33 1006.64 1006.73 1006.63 1006.42 1006.17 1005.98 1005.87 1005.88 1005.98 1006.13 1006.30 1006.43 1006.50 1006.51 1006.48 1006.43 1006.40 1006.42 1006.50 1006.65 1006.84 1007.07 1007.32 1007.56 1007.81 1008.07 1008.36 1008.68 1009.06 1009.49 1009.96 1010.46 1010.95 1011.41 1011.82 1012.15 1012.42 1012.62 1012.77
1005.04 1005.70 1006.33 1006.82 1007.11 1007.16 1007.01 1006.74 1006.41 1006.12 1005.90 1005.78 1005.76 1005.79 1005.85 1005.89 1005.89 1005.84 1005.75 1005.66 1005.59 1005.56 1005.60 1005.70 1005.86 1006.06 1006.28 1006.52 1006.76 1007.00 1007.28 1007.58 1007.93 1008.32 1008.77 1009.25 1009.75 1010.25 1010.72 1011.16 1011.56 1011.92 1012.24
1005.56 1006.21 1006.81 1007.27 1007.52 1007.54 1007.36 1007.06 1006.70 1006.35 1006.06 1005.85 1005.72 1005.65 1005.59 1005.52 1005.42 1005.27 1005.10 1004.93 1004.77 1004.67 1004.64 1004.68 1004.79 1004.96 1005.16 1005.39 1005.63 1005.89 1006.17 1006.48 1006.82 1007.22 1007.66 1008.14 1008.65 1009.19 1009.73 1010.27 1010.78 1011.28 1011.74
1006.02 1006.63 1007.19 1007.59 1007.80 1007.80 1007.62 1007.33 1006.97 1006.62 1006.30 1006.05 1005.84 1005.67 1005.50 1005.31 1005.07 1004.80 1004.50 1004.21 1003.94 1003.74 1003.61 1003.58 1003.63 1003.76 1003.95 1004.19 1004.45 1004.74 1005.05 1005.39 1005.77 1006.19 1006.65 1007.15 1007.69 1008.27 1008.87 1009.47 1010.08 1010.68 1011.24
1006.38 1006.93 1007.41 1007.75 1007.91 1007.91 1007.76 1007.51 1007.20 1006.88 1006.58 1006.31 1006.06 1005.80 1005.52 1005.19 1004.82 1004.39 1003.95 1003.51 1003.11 1002.78 1002.55 1002.43 1002.42 1002.51 1002.69 1002.93 1003.23 1003.57 1003.94 1004.34 1004.77 1005.24 1005.75 1006.29 1006.87 1007.48 1008.12 1008.78 1009.44 1010.09 1010.72
1006.60 1007.07 1007.46 1007.74 1007.88 1007.89 1007.78 1007.60 1007.38 1007.13 1006.87 1006.61 1006.32 1005.99 1005.60 1005.14 1004.61 1004.03 1003.43 1002.83 1002.29 1001.84 1001.50 1001.29 1001.22 1001.28 1001.44 1001.70 1002.04 1002.43 1002.87 1003.35 1003.85 1004.39 1004.95 1005.55 1006.17 1006.81 1007.47 1008.15 1008.83 1009.51 1010.16
1006.69 1007.08 1007.40 1007.62 1007.74 1007.78 1007.74 1007.65 1007.51 1007.35 1007.16 1006.91 1006.60 1006.21 1005.72 1005.13 1004.45 1003.72 1002.97 1002.23 1001.56 1000.99 1000.56 1000.27 1000.15 1000.17 1000.32 1000.59 1000.96 1001.41 1001.91 1002.46 1003.04 1003.65 1004.28 1004.92 1005.58 1006.25 1006.92 1007.60 1008.28 1008.94 1009.58
1006.67 1007.00 1007.26 1007.45 1007.57 1007.65 1007.69 1007.69 1007.66 1007.58 1007.44 1007.21 1006.88 1006.43 1005.85 1005.15 1004.35 1003.49 1002.62 1001.78 1001.01 1000.36 999.85 999.51 999.34 999.33 999.47 999.74 1000.13 1000.60 1001.15 1001.76 1002.40 1003.07 1003.76 1004.45 1005.13 1005.82 1006.50 1007.16 1007.82 1008.46 1009.07
1006.59 1006.88 1007.12 1007.31 1007.46 1007.59 1007.70 1007.79 1007.85 1007.84 1007.75 1007.53 1007.18 1006.68 1006.03 1005.24 1004.35 1003.42 1002.47 1001.56 1000.75 1000.05 999.51 999.14 998.94 998.91 999.02 999.28 999.67 1000.15 1000.72 1001.35 1002.03 1002.74 1003.46 1004.18 1004.90 1005.59 1006.27 1006.92 1007.56 1008.17 1008.76
1006.50 1006.80 1007.05 1007.26 1007.46 1007.65 1007.84 1008.01 1008.13 1008.18 1008.11 1007.90 1007.53 1006.98 1006.28 1005.45 1004.53 1003.56 1002.59 1001.68 1000.87 1000.19 999.65 999.28 999.07 999.02 999.11 999.34 999.69 1000.15 1000.71 1001.33 1002.02 1002.74 1003.48 1004.22 1004.95 1005.65 1006.33 1006.98 1007.59 1008.18 1008.75
1006.44 1006.79 1007.08 1007.35 1007.61 1007.87 1008.12 1008.35 1008.53 1008.60 1008.55 1008.33 1007.95 1007.39 1006.67 1005.84 1004.92 1003.98 1003.06 1002.20 1001.45 1000.82 1000.32 999.98 999.77 999.71 999.77 999.96 1000.26 1000.67 1001.18 1001.77 1002.43 1003.14 1003.88 1004.62 1005.36 1006.07 1006.75 1007.39 1008.00 1008.58 1009.13
1006.45 1006.87 1007.23 1007.57 1007.90 1008.22 1008.54 1008.81 1009.01 1009.10 1009.05 1008.84 1008.45 1007.90 1007.21 1006.42 1005.57 1004.71 1003.88 1003.13 1002.47 1001.93 1001.51 1001.21 1001.03 1000.96 1000.99 1001.12 1001.36 1001.71 1002.15 1002.68 1003.30 1003.97 1004.69 1005.42 1006.16 1006.87 1007.56 1008.20 1008.81 1009.38 1009.92
1006.54 1007.04 1007.48 1007.89 1008.29 1008.67 1009.02 1009.32 1009.54 1009.65 1009.60 1009.40 1009.04 1008.53 1007.90 1007.19 1006.45 1005.71 1005.02 1004.41 1003.88 1003.45 1003.12 1002.88 1002.72 1002.65 1002.65 1002.73 1002.91 1003.18 1003.55 1004.01 1004.57 1005.20 1005.88 1006.60 1007.32 1008.03 1008.71 1009.36 1009.96 1010.53 1011.06
1006.69 1007.27 1007.78 1008.26 1008.71 1009.13 1009.51 1009.83 1010.06 1010.17 1010.15 1009.98 1009.67 1009.24 1008.71 1008.12 1007.51 1006.93 1006.40 1005.94 1005.55 1005.24 1005.00 1004.82 1004.69 1004.61 1004.59 1004.63 1004.74 1004.95 1005.25 1005.65 1006.14 1006.72 1007.37 1008.05 1008.76 1009.45 1010.12 1010.76 1011.35 1011.90 1012.42
1006.88 1007.52 1008.09 1008.61 1009.09 1009.53 1009.93 1010.26 1010.50 1010.63 1010.64 1010.53 1010.30 1009.97 1009.57 1009.12 1008.68 1008.26 1007.89 1007.57 1007.32 1007.11 1006.95 1006.83 1006.73 1006.65 1006.61 1006.62 1006.69 1006.84 1007.09 1007.43 1007.88 1008.41 1009.02 1009.66 1010.33 1011.00 1011.65 1012.26 1012.82 1013.35 1013.83
1007.11 1007.77 1008.36 1008.89 1009.38 1009.83 1010.22 1010.56 1010.82 1010.98 1011.04 1011.01 1010.88 1010.67 1010.41 1010.13 1009.84 1009.58 1009.36 1009.17 1009.03 1008.91 1008.81 1008.73 1008.65 1008.58 1008.54 1008.53 1008.58 1008.70 1008.91 1009.22 1009.63 1010.12 1010.68 1011.28 1011.91 1012.53 1013.14 1013.70 1014.23 1014.71 1015.15
1007.34 1007.99 1008.57 1009.10 1009.57 1010.00 1010.39 1010.73 1011.00 1011.21 1011.34 1011.39 1011.38 1011.31 1011.20 1011.06 1010.93 1010.81 1010.70 1010.62 1010.55 1010.49 1010.44 1010.38 1010.32 1010.26 1010.22 1010.22 1010.27 1010.38 1010.58 1010.87 1011.25 1011.71 1012.23 1012.78 1013.36 1013.92 1014.46 1014.97 1015.43 1015.86 1016.25
Thickness
5795 5794 5793 5792 5789 5786 5784 5782 5780 5779 5777 5775 5772 5770 5769 5769 5769 5770 5769 5769 5767 5766 5764 5762 5760 5758 5755 5754 5752 5750 5747 5745 5744 5741 5738 5740 5741 5740 5740 5739 5738 5738 5737
5792 5793 5793 5791 5789 5786 5784 5782 5781 5779 5778 5776 5775 5773 5771 5770 5769 5769 5769 5768 5767 5765 5764 5762 5759 5757 5754 5752 5750 5748 5745 5743 5742 5738 5733 5730 5732 5735 5737 5737 5736 5735 5734
5793 5793 5792 5791 5789 5787 5786 5785 5782 5781 5779 5778 5776 5773 5771 5769 5767 5767 5767 5767 5766 5765 5763 5761 5759 5757 5754 5751 5749 5747 5744 5740 5739 5738 5733 5727 5723 5726 5731 5732 5733 5732 5731
5797 5795 5794 5792 5791 5790 5789 5786 5783 5782 5780 5778 5775 5772 5768 5765 5765 5766 5765 5766 5765 5764 5762 5760 5758 5756 5754 5751 5749 5747 5744 5741 5737 5735 5734 5732 5728 5723 5722 5726 5729 5729 5728
5800 5798 5797 5795 5794 5792 5789 5787 5784 5781 5780 5778 5776 5772 5769 5767 5766 5765 5764 5763 5763 5762 5760 5758 5756 5754 5752 5750 5747 5745 5743 5741 5737 5734 5732 5729 5727 5724 5720 5719 5722 5724 5725
5803 5801 5800 5797 5793 5791 5789 5786 5782 5780 5779 5777 5775 5773 5770 5767 5764 5762 5761 5760 5760 5759 5758 5756 5754 5752 5749 5748 5746 5744 5742 5739 5737 5734 5732 5728 5725 5723 5720 5717 5717 5717 5720
5801 5799 5797 5795 5792 5790 5788 5785 5781 5778 5777 5776 5774 5772 5770 5767 5764 5762 5759 5758 5757 5756 5756 5754 5752 5750 5748 5746 5744 5742 5740 5738 5736 5733 5731 5729 5727 5725 5722 5718 5716 5715 5716
5802 5800 5798 5796 5793 5791 5788 5785 5781 5778 5776 5774 5772 5771 5768 5766 5764 5762 5760 5757 5756 5755 5755 5753 5750 5749 5746 5744 5741 5739 5738 5736 5734 5732 5730 5728 5727 5725 5723 5719 5715 5712 5712
5801 5800 5798 5795 5792 5790 5787 5785 5781 5777 5775 5774 5771 5769 5767 5764 5762 5760 5759 5757 5756 5755 5753 5751 5749 5746 5744 5742 5739 5736 5735 5733 5731 5730 5729 5727 5726 5725 5723 5721 5718 5713 5708
5799 5798 5797 5794 5792 5790 5787 5784 5780 5777 5774 5772 5770 5768 5765 5763 5760 5757 5755 5755 5754 5752 5750 5747 5746 5743 5741 5739 5736 5734 5733 5731 5729 5728 5726 5725 5724 5723 5721 5719 5717 5714 5710
5797 5796 5795 5793 5791 5787 5784 5781 5778 5775 5771 5769 5767 5765 5763 5760 5757 5754 5753 5752 5750 5749 5747 5744 5742 5739 5737 5735 5732 5731 5729 5728 5726 5725 5724 5723 5721 5720 5718 5716 5714 5711 5709
5795 5795 5793 5790 5787 5784 5781 5778 5776 5773 5770 5767 5764 5761 5759 5757 5754 5751 5750 5748 5747 5745 5743 5742 5739 5736 5734 5731 5729 5727 5726 5724 5723 5722 5720 5719 5718 5716 5714 5712 5711 5708 5706
5789 5788 5788 5785 5783 5781 5779 5776 5773 5771 5768 5765 5761 5757 5755 5753 5751 5748 5746 5745 5743 5740 5738 5737 5735 5732 5730 5727 5726 5724 5723 5721 5720 5719 5717 5716 5715 5712 5710 5708 5707 5705 5704
5781 5781 5781 5780 5780 5778 5775 5772 5770 5768 5765 5761 5758 5754 5752 5750 5748 5746 5743 5741 5739 5737 5734 5733 5731 5728 5726 5724 5723 5721 5719 5718 5717 5716 5715 5713 5711 5709 5707 5705 5702 5700 5698
5775 5774 5774 5774 5774 5772 5770 5769 5767 5765 5762 5758 5754 5752 5749 5747 5744 5741 5739 5737 5735 5734 5731 5729 5726 5724 5722 5721 5720 5718 5716 5714 5713 5712 5711 5710 5708 5706 5704 5702 5699 5696 5693
5769 5770 5770 5769 5768 5767 5766 5764 5762 5760 5758 5754 5751 5748 5745 5742 5739 5737 5734 5732 5730 5729 5727 5724 5722 5720 5720 5719 5717 5715 5713 5711 5709 5707 5706 5705 5703 5702 5700 5698 5696 5694 5690
5764 5763 5764 5764 5762 5762 5760 5758 5757 5755 5753 5750 5747 5745 5741 5738 5735 5732 5729 5728 5725 5723 5721 5719 5717 5716 5715 5714 5713 5710 5708 5706 5704 5703 5702 5701 5700 5697 5695 5693 5691 5689 5687
5757 5758 5759 5759 5758 5757 5755 5752 5750 5748 5746 5744 5742 5739 5737 5734 5731 5728 5726 5724 5721 5719 5717 5714 5713 5711 5710 5709 5707 5705 5703 5701 5699 5698 5697 5695 5694 5693 5690 5687 5685 5683 5682
5752 5752 5753 5753 5751 5750 5748 5745 5742 5740 5738 5736 5735 5733 5731 5728 5725 5723 5721 5719 5717 5714 5712 5711 5708 5706 5705 5703 5702 5700 5698 5695 5694 5693 5692 5690 5689 5687 5685 5682 5679 5678 5676
5745 5745 5745 5745 5743 5741 5740 5736 5733 5732 5731 5730 5728 5726 5724 5722 5719 5717 5715 5713 5711 5709 5707 5705 5703 5701 5700 5698 5696 5694 5691 5689 5688 5687 5686 5685 5683 5681 5679 5676 5674 5672 5670
5736 5737 5736 5734 5733 5733 5731 5726 5724 5723 5725 5724 5722 5719 5717 5715 5714 5711 5709 5707 5704 5702 5700 5698 5697 5696 5695 5692 5691 5688 5685 5683 5681 5680 5679 5678 5676 5674 5672 5670 5668 5667 5665
5727 5727 5725 5724 5724 5723 5721 5717 5715 5716 5716 5715 5713 5711 5709 5707 5707 5704 5702 5700 5697 5695 5693 5691 5690 5689 5688 5686 5685 5683 5680 5678 5675 5674 5673 5672 5670 5668 5666 5664 5663 5660 5657
5717 5717 5715 5713 5713 5712 5710 5707 5707 5707 5706 5705 5703 5702 5701 5699 5698 5696 5694 5691 5690 5688 5686 5684 5682 5682 5681 5680 5678 5676 5673 5671 5669 5668 5667 5665 5663 5661 5658 5657 5655 5653 5650
5706 5706 5705 5703 5702 5702 5700 5699 5698 5697 5695 5694 5693 5692 5691 5690 5689 5688 5687 5684 5683 5681 5679 5677 5675 5674 5673 5673 5672 5670 5667 5664 5662 5661 5659 5657 5656 5654 5652 5650 5647 5645 5643
5696 5695 5694 5693 5693 5693 5691 5690 5689 5687 5683 5682 5683 5683 5682 5681 5680 5680 5679 5678 5677 5676 5673 5672 5670 5668 5667 5667 5666 5664 5661 5658 5656 5653 5651 5650 5648 5646 5643 5641 5639 5638 5635
5686 5685 5684 5684 5683 5683 5681 5680 5679 5678 5676 5674 5673 5672 5672 5671 5671 5671 5670 5670 5670 5669 5668 5666 5665 5663 5662 5660 5658 5655 5653 5651 5647 5644 5643 5642 5640 5638 5636 5634 5632 5630 5627